| time (UTC) | temp F | wind direction | speed MPH | gust MPH | rain 1hr in | rain 24hr in | rain mn in | humidity % | barometer mb |
| 20260906124337 | 72 | 58 | 3.0 | 7.0 | 0.00 | 0.00 | 0.00 | 87 | 1016.8 |
| 20260906123835 | 72 | 29 | 2.0 | 7.0 | 0.00 | 0.00 | 0.00 | 88 | 1016.8 |
| 20260906123335 | 71 | 21 | 2.0 | 5.0 | 0.00 | 0.00 | 0.00 | 89 | 1016.4 |
| 20260906122833 | 71 | 96 | 2.0 | 7.0 | 0.00 | 0.00 | 0.00 | 90 | 1016.4 |
| 20260906121834 | 70 | 70 | 3.0 | 6.0 | 0.00 | 0.00 | 0.00 | 91 | 1016.0 |
| 20260906120830 | 70 | 35 | 2.0 | 5.0 | 0.00 | 0.00 | 0.00 | 92 | 1016.0 |
| 20260906120330 | 70 | 81 | 2.0 | 6.0 | 0.00 | 0.00 | 0.00 | 92 | 1015.8 |
| 20260906115825 | 70 | 58 | 3.0 | 7.0 | 0.00 | 0.00 | 0.00 | 93 | 1015.8 |
| 20260906114810 | 70 | 55 | 3.0 | 9.0 | 0.00 | 0.00 | 0.00 | 93 | 1015.5 |
| 20260906114300 | 70 | 17 | 3.0 | 7.0 | 0.00 | 0.00 | 0.00 | 92 | 1015.5 |
| 20260906113748 | 70 | 58 | 2.0 | 6.0 | 0.00 | 0.00 | 0.00 | 92 | 1015.5 |
| 20260906113248 | 70 | 52 | 3.0 | 7.0 | 0.00 | 0.00 | 0.00 | 92 | 1015.1 |
| 20260906112742 | 70 | 85 | 3.0 | 7.0 | 0.00 | 0.00 | 0.00 | 92 | 1015.1 |
| 20260906112238 | 71 | 86 | 3.0 | 10.0 | 0.00 | 0.00 | 0.00 | 92 | 1015.1 |
| 20260906111236 | 71 | 70 | 4.0 | 6.0 | 0.00 | 0.00 | 0.00 | 92 | 1015.0 |
| 20260906110734 | 71 | 65 | 3.0 | 11.0 | 0.00 | 0.00 | 0.00 | 93 | 1015.0 |
| 20260906110229 | 71 | 61 | 3.0 | 11.0 | 0.00 | 0.00 | 0.00 | 93 | 1015.0 |
| 20260906105731 | 71 | 75 | 3.0 | 7.0 | 0.00 | 0.00 | 0.00 | 94 | 1015.0 |
| 20260906105220 | 71 | 73 | 3.0 | 7.0 | 0.00 | 0.00 | 0.00 | 94 | 1015.0 |
| 20260906104724 | 71 | 52 | 3.0 | 6.0 | 0.00 | 0.00 | 0.00 | 94 | 1014.6 |
| 20260906104208 | 71 | 102 | 2.0 | 6.0 | 0.00 | 0.00 | 0.00 | 94 | 1014.6 |
| 20260906103705 | 71 | 56 | 2.0 | 5.0 | 0.00 | 0.00 | 0.00 | 94 | 1014.5 |
| 20260906103206 | 71 | 42 | 2.0 | 5.0 | 0.00 | 0.00 | 0.00 | 94 | 1014.5 |
| 20260906102706 | 71 | 45 | 2.0 | 5.0 | 0.00 | 0.00 | 0.00 | 94 | 1014.5 |
| 20260906102201 | 71 | 44 | 3.0 | 10.0 | 0.00 | 0.00 | 0.00 | 94 | 1014.4 |
| 20260906101702 | 71 | 58 | 3.0 | 10.0 | 0.00 | 0.00 | 0.00 | 94 | 1014.4 |
| 20260906101202 | 71 | 58 | 2.0 | 7.0 | 0.00 | 0.00 | 0.00 | 94 | 1014.4 |
| 20260906100650 | 71 | 54 | 2.0 | 6.0 | 0.00 | 0.00 | 0.00 | 94 | 1014.4 |
| 20260906100135 | 71 | 86 | 2.0 | 6.0 | 0.00 | 0.00 | 0.00 | 94 | 1014.4 |
| 20260906095618 | 71 | 7 | 2.0 | 6.0 | 0.00 | 0.00 | 0.00 | 94 | 1014.4 |
| 20260906095108 | 71 | 67 | 2.0 | 6.0 | 0.00 | 0.00 | 0.00 | 94 | 1014.3 |
| 20260906094557 | 71 | 51 | 2.0 | 9.0 | 0.00 | 0.00 | 0.00 | 94 | 1014.3 |
| 20260906094049 | 71 | 23 | 2.0 | 9.0 | 0.00 | 0.00 | 0.00 | 94 | 1014.3 |
| 20260906093039 | 71 | 48 | 2.0 | 6.0 | 0.00 | 0.00 | 0.00 | 94 | 1014.4 |
| 20260906092527 | 71 | 52 | 3.0 | 7.0 | 0.00 | 0.00 | 0.00 | 93 | 1014.4 |
| 20260906092018 | 71 | 73 | 2.0 | 7.0 | 0.00 | 0.00 | 0.00 | 93 | 1014.3 |
| 20260906091010 | 71 | 17 | 3.0 | 6.0 | 0.00 | 0.00 | 0.00 | 93 | 1014.3 |
| 20260906090509 | 71 | 44 | 3.0 | 5.0 | 0.00 | 0.00 | 0.00 | 93 | 1014.4 |
| 20260906085508 | 71 | 28 | 2.0 | 4.0 | 0.00 | 0.00 | 0.00 | 93 | 1014.4 |
| 20260906084452 | 71 | 48 | 1.0 | 4.0 | 0.00 | 0.00 | 0.00 | 93 | 1014.3 |
| 20260906083950 | 71 | 31 | 2.0 | 5.0 | 0.00 | 0.00 | 0.00 | 93 | 1014.3 |
| 20260906082452 | 71 | 40 | 3.0 | 6.0 | 0.00 | 0.00 | 0.00 | 92 | 1014.4 |
| 20260906081941 | 71 | 55 | 3.0 | 7.0 | 0.00 | 0.00 | 0.00 | 92 | 1014.4 |
| 20260906081440 | 71 | 31 | 3.0 | 7.0 | 0.00 | 0.00 | 0.00 | 92 | 1014.4 |
| 20260906080940 | 71 | 51 | 3.0 | 7.0 | 0.00 | 0.00 | 0.00 | 92 | 1014.4 |
| 20260906080441 | 71 | 75 | 3.0 | 6.0 | 0.00 | 0.00 | 0.00 | 92 | 1014.4 |
| 20260906075929 | 71 | 25 | 3.0 | 6.0 | 0.00 | 0.00 | 0.00 | 92 | 1014.4 |
| 20260906075420 | 71 | 12 | 3.0 | 7.0 | 0.00 | 0.00 | 0.00 | 92 | 1014.4 |
| 20260906074404 | 71 | 42 | 2.0 | 5.0 | 0.00 | 0.00 | 0.00 | 92 | 1014.4 |
| 20260906073853 | 71 | 38 | 2.0 | 4.0 | 0.00 | 0.00 | 0.00 | 92 | 1014.4 |
| 20260906072843 | 71 | 40 | 2.0 | 6.0 | 0.00 | 0.00 | 0.00 | 92 | 1014.4 |
| 20260906072335 | 71 | 42 | 2.0 | 6.0 | 0.00 | 0.00 | 0.00 | 92 | 1014.4 |
| 20260906071317 | 71 | 50 | 3.0 | 6.0 | 0.00 | 0.00 | 0.00 | 92 | 1014.5 |
| 20260906070807 | 71 | 58 | 3.0 | 5.0 | 0.00 | 0.00 | 0.00 | 92 | 1014.5 |
| 20260906070306 | 71 | 42 | 3.0 | 9.0 | 0.00 | 0.00 | 0.00 | 92 | 1014.6 |
| 20260906065804 | 71 | 75 | 3.0 | 9.0 | 0.00 | 0.00 | 0.00 | 92 | 1014.6 |
| 20260906065306 | 71 | 350 | 3.0 | 7.0 | 0.00 | 0.00 | 0.00 | 92 | 1014.6 |
| 20260906064806 | 70 | 63 | 2.0 | 6.0 | 0.00 | 0.00 | 0.00 | 92 | 1014.7 |
| 20260906063802 | 70 | 32 | 2.0 | 5.0 | 0.00 | 0.00 | 0.00 | 92 | 1014.7 |
| 20260906063257 | 70 | 52 | 2.0 | 5.0 | 0.00 | 0.00 | 0.00 | 93 | 1014.8 |
| 20260906062757 | 70 | 358 | 3.0 | 6.0 | 0.00 | 0.00 | 0.00 | 93 | 1014.8 |
| 20260906062258 | 70 | 27 | 3.0 | 7.0 | 0.00 | 0.00 | 0.00 | 93 | 1014.8 |
| 20260906061757 | 70 | 7 | 3.0 | 7.0 | 0.00 | 0.00 | 0.00 | 93 | 1014.9 |
| 20260906060752 | 70 | 29 | 4.0 | 10.0 | 0.00 | 0.00 | 0.00 | 93 | 1014.9 |
| 20260906060250 | 70 | 27 | 3.0 | 10.0 | 0.00 | 0.00 | 0.00 | 92 | 1014.8 |
| 20260906055752 | 70 | 30 | 3.0 | 6.0 | 0.00 | 0.00 | 0.00 | 92 | 1014.8 |
| 20260906055247 | 70 | 66 | 3.0 | 7.0 | 0.00 | 0.00 | 0.00 | 92 | 1014.8 |
| 20260906054736 | 70 | 338 | 4.0 | 10.0 | 0.00 | 0.00 | 0.00 | 92 | 1014.6 |
| 20260906054231 | 70 | 358 | 4.0 | 10.0 | 0.00 | 0.00 | 0.00 | 92 | 1014.6 |
| 20260906053724 | 70 | 1 | 3.0 | 9.0 | 0.00 | 0.00 | 0.00 | 92 | 1014.6 |
| 20260906053217 | 70 | 30 | 3.0 | 7.0 | 0.00 | 0.00 | 0.00 | 92 | 1014.4 |
| 20260906052707 | 70 | 52 | 3.0 | 8.0 | 0.00 | 0.00 | 0.00 | 92 | 1014.4 |
| 20260906051655 | 70 | 7 | 4.0 | 9.0 | 0.00 | 0.00 | 0.00 | 92 | 1014.4 |
| 20260906051154 | 70 | 52 | 4.0 | 9.0 | 0.00 | 0.00 | 0.00 | 91 | 1014.4 |
| 20260906050633 | 70 | 12 | 4.0 | 11.0 | 0.00 | 0.00 | 0.00 | 91 | 1014.3 |
| 20260906050122 | 70 | 40 | 3.0 | 11.0 | 0.00 | 0.00 | 0.00 | 91 | 1014.3 |
| 20260906045616 | 71 | 51 | 3.0 | 7.0 | 0.00 | 0.00 | 0.00 | 91 | 1014.3 |
| 20260906045106 | 71 | 23 | 3.0 | 8.0 | 0.00 | 0.00 | 0.00 | 91 | 1014.0 |
| 20260906044552 | 71 | 97 | 4.0 | 10.0 | 0.00 | 0.00 | 0.00 | 91 | 1014.0 |
| 20260906044046 | 71 | 34 | 4.0 | 10.0 | 0.00 | 0.00 | 0.00 | 91 | 1014.0 |
| 20260906043540 | 71 | 45 | 3.0 | 8.0 | 0.00 | 0.00 | 0.00 | 91 | 1013.8 |
| 20260906043034 | 71 | 38 | 4.0 | 9.0 | 0.00 | 0.00 | 0.00 | 91 | 1013.8 |
| 20260906042020 | 72 | 73 | 3.0 | 10.0 | 0.00 | 0.00 | 0.00 | 91 | 1013.8 |
| 20260906041514 | 72 | 53 | 4.0 | 10.0 | 0.00 | 0.00 | 0.00 | 91 | 1013.8 |
| 20260906040453 | 72 | 36 | 3.0 | 10.0 | 0.00 | 0.00 | 0.00 | 91 | 1013.7 |
| 20260906035943 | 72 | 81 | 3.0 | 10.0 | 0.00 | 0.00 | 0.00 | 91 | 1013.7 |
| 20260906035440 | 73 | 61 | 3.0 | 9.0 | 0.00 | 0.00 | 0.00 | 91 | 1013.7 |
| 20260906034420 | 73 | 90 | 3.0 | 11.0 | 0.00 | 0.00 | 0.00 | 90 | 1013.7 |
| 20260906033910 | 73 | 49 | 3.0 | 9.0 | 0.00 | 0.00 | 0.00 | 90 | 1013.7 |
| 20260906033400 | 73 | 56 | 3.0 | 9.0 | 0.00 | 0.00 | 0.00 | 90 | 1013.5 |
| 20260906032854 | 73 | 83 | 3.0 | 7.0 | 0.00 | 0.00 | 0.00 | 90 | 1013.5 |
| 20260906032344 | 74 | 59 | 3.0 | 7.0 | 0.00 | 0.00 | 0.00 | 90 | 1013.5 |
| 20260906031840 | 74 | 42 | 3.0 | 7.0 | 0.00 | 0.00 | 0.00 | 90 | 1013.7 |
| 20260906031336 | 74 | 52 | 3.0 | 7.0 | 0.00 | 0.00 | 0.00 | 89 | 1013.7 |
| 20260906030835 | 74 | 66 | 2.0 | 6.0 | 0.00 | 0.00 | 0.00 | 89 | 1013.7 |
| 20260906030334 | 74 | 104 | 2.0 | 6.0 | 0.00 | 0.00 | 0.00 | 89 | 1013.4 |
| 20260906025830 | 74 | 58 | 3.0 | 7.0 | 0.00 | 0.00 | 0.00 | 89 | 1013.4 |
| 20260906025327 | 75 | 79 | 3.0 | 7.0 | 0.00 | 0.00 | 0.00 | 88 | 1013.4 |
| 20260906024828 | 75 | 79 | 3.0 | 7.0 | 0.00 | 0.00 | 0.00 | 88 | 1013.4 |
| 20260906024327 | 75 | 71 | 3.0 | 7.0 | 0.00 | 0.00 | 0.00 | 87 | 1013.4 |
| 20260906023828 | 75 | 51 | 3.0 | 9.0 | 0.00 | 0.00 | 0.00 | 87 | 1013.4 |
| 20260906023322 | 76 | 46 | 4.0 | 9.0 | 0.00 | 0.00 | 0.00 | 87 | 1013.2 |
| 20260906022820 | 76 | 54 | 4.0 | 10.0 | 0.00 | 0.00 | 0.00 | 87 | 1013.2 |
| 20260906022308 | 76 | 65 | 3.0 | 10.0 | 0.00 | 0.00 | 0.00 | 87 | 1013.2 |
| 20260906021752 | 76 | 43 | 3.0 | 7.0 | 0.00 | 0.00 | 0.00 | 87 | 1012.9 |
| 20260906020728 | 77 | 73 | 3.0 | 6.0 | 0.00 | 0.00 | 0.00 | 86 | 1012.9 |
| 20260906020216 | 77 | 44 | 4.0 | 9.0 | 0.00 | 0.00 | 0.00 | 85 | 1012.8 |
| 20260906015700 | 78 | 77 | 4.0 | 11.0 | 0.00 | 0.00 | 0.00 | 85 | 1012.8 |
| 20260906015146 | 78 | 17 | 5.0 | 11.0 | 0.00 | 0.00 | 0.00 | 85 | 1012.7 |
| 20260906014636 | 78 | 38 | 5.0 | 11.0 | 0.00 | 0.00 | 0.00 | 84 | 1012.7 |
| 20260906014131 | 78 | 325 | 5.0 | 14.0 | 0.00 | 0.00 | 0.00 | 84 | 1012.7 |
| 20260906013630 | 78 | 0 | 4.0 | 14.0 | 0.00 | 0.00 | 0.00 | 84 | 1012.5 |
| 20260906013128 | 79 | 12 | 3.0 | 7.0 | 0.00 | 0.00 | 0.00 | 84 | 1012.5 |
| 20260906012629 | 79 | 58 | 3.0 | 7.0 | 0.00 | 0.00 | 0.00 | 84 | 1012.5 |
| 20260906012130 | 79 | 47 | 3.0 | 7.0 | 0.00 | 0.00 | 0.00 | 84 | 1012.3 |
| 20260906011627 | 80 | 3 | 4.0 | 9.0 | 0.00 | 0.00 | 0.00 | 84 | 1012.3 |
| 20260906011129 | 80 | 34 | 4.0 | 9.0 | 0.00 | 0.00 | 0.00 | 83 | 1012.3 |
| 20260906010616 | 80 | 12 | 4.0 | 9.0 | 0.00 | 0.00 | 0.00 | 83 | 1012.2 |
| 20260906005551 | 81 | 7 | 3.0 | 7.0 | 0.00 | 0.00 | 0.00 | 82 | 1012.2 |
| 20260906005046 | 82 | 88 | 3.0 | 7.0 | 0.00 | 0.00 | 0.00 | 81 | 1012.1 |
| 20260906004541 | 82 | 60 | 4.0 | 11.0 | 0.00 | 0.00 | 0.00 | 81 | 1012.1 |
| 20260906004035 | 83 | 21 | 5.0 | 11.0 | 0.00 | 0.00 | 0.00 | 80 | 1012.1 |
| 20260906003525 | 83 | 7 | 5.0 | 13.0 | 0.00 | 0.00 | 0.00 | 79 | 1011.7 |
| 20260906003019 | 83 | 31 | 5.0 | 13.0 | 0.00 | 0.00 | 0.00 | 78 | 1011.7 |
| 20260906002513 | 84 | 37 | 4.0 | 9.0 | 0.00 | 0.00 | 0.00 | 78 | 1011.7 |
| 20260906002003 | 84 | 36 | 4.0 | 10.0 | 0.00 | 0.00 | 0.00 | 78 | 1011.7 |
| 20260906001457 | 84 | 12 | 4.0 | 10.0 | 0.00 | 0.00 | 0.00 | 78 | 1011.7 |
| 20260906000433 | 85 | 46 | 4.0 | 9.0 | 0.00 | 0.00 | 0.00 | 77 | 1011.6 |
| 20260905235925 | 85 | 21 | 4.0 | 9.0 | 0.00 | 0.00 | 0.00 | 76 | 1011.6 |
| 20260905234912 | 86 | 7 | 4.0 | 11.0 | 0.00 | 0.00 | 0.00 | 75 | 1011.7 |
| 20260905234408 | 86 | 51 | 6.0 | 11.0 | 0.00 | 0.00 | 0.00 | 75 | 1011.7 |
| 20260905233908 | 87 | 339 | 5.0 | 13.0 | 0.00 | 0.00 | 0.00 | 74 | 1011.7 |
| 20260905232900 | 87 | 12 | 5.0 | 10.0 | 0.00 | 0.00 | 0.00 | 74 | 1011.6 |
| 20260905232402 | 88 | 12 | 5.0 | 11.0 | 0.00 | 0.00 | 0.00 | 73 | 1011.6 |
| 20260905231856 | 88 | 49 | 5.0 | 11.0 | 0.00 | 0.00 | 0.00 | 72 | 1011.4 |
| 20260905225858 | 89 | 38 | 6.0 | 11.0 | 0.00 | 0.00 | 0.00 | 69 | 1011.2 |
| 20260905225358 | 90 | 49 | 6.0 | 12.0 | 0.00 | 0.00 | 0.00 | 68 | 1011.2 |
| 20260905224338 | 91 | 44 | 5.0 | 11.0 | 0.00 | 0.00 | 0.00 | 67 | 1011.2 |
| 20260905223828 | 91 | 63 | 4.0 | 9.0 | 0.00 | 0.00 | 0.00 | 67 | 1011.2 |
| 20260905222305 | 91 | 32 | 4.0 | 11.0 | 0.00 | 0.00 | 0.00 | 68 | 1011.2 |
| 20260905221756 | 91 | 28 | 5.0 | 11.0 | 0.00 | 0.00 | 0.00 | 68 | 1011.2 |
| 20260905221245 | 91 | 1 | 6.0 | 13.0 | 0.00 | 0.00 | 0.00 | 68 | 1011.2 |
| 20260905220233 | 92 | 2 | 6.0 | 13.0 | 0.00 | 0.00 | 0.00 | 66 | 1011.1 |
| 20260905215728 | 92 | 27 | 4.0 | 11.0 | 0.00 | 0.00 | 0.00 | 67 | 1011.1 |
| 20260905214707 | 92 | 7 | 3.0 | 9.0 | 0.00 | 0.00 | 0.00 | 66 | 1011.1 |
| 20260905214158 | 92 | 344 | 3.0 | 7.0 | 0.00 | 0.00 | 0.00 | 68 | 1011.1 |
| 20260905213652 | 91 | 21 | 4.0 | 9.0 | 0.00 | 0.00 | 0.00 | 67 | 1011.1 |
| 20260905213141 | 92 | 17 | 4.0 | 9.0 | 0.00 | 0.00 | 0.00 | 67 | 1011.1 |
| 20260905212125 | 93 | 12 | 4.0 | 10.0 | 0.00 | 0.00 | 0.00 | 66 | 1011.1 |
| 20260905211616 | 93 | 346 | 5.0 | 10.0 | 0.00 | 0.00 | 0.00 | 66 | 1011.1 |
| 20260905211105 | 93 | 21 | 4.0 | 9.0 | 0.00 | 0.00 | 0.00 | 65 | 1011.1 |
| 20260905210605 | 93 | 39 | 4.0 | 10.0 | 0.00 | 0.00 | 0.00 | 66 | 1011.5 |
| 20260905210105 | 93 | 21 | 4.0 | 10.0 | 0.00 | 0.00 | 0.00 | 67 | 1011.5 |
| 20260905205605 | 92 | 36 | 5.0 | 10.0 | 0.00 | 0.00 | 0.00 | 65 | 1011.5 |
| 20260905205106 | 93 | 7 | 5.0 | 11.0 | 0.00 | 0.00 | 0.00 | 66 | 1011.4 |
| 20260905204604 | 93 | 343 | 5.0 | 11.0 | 0.00 | 0.00 | 0.00 | 66 | 1011.4 |
| 20260905204101 | 93 | 50 | 4.0 | 10.0 | 0.00 | 0.00 | 0.00 | 67 | 1011.4 |
| 20260905203559 | 93 | 38 | 5.0 | 11.0 | 0.00 | 0.00 | 0.00 | 66 | 1011.5 |
| 20260905203055 | 93 | 49 | 5.0 | 11.0 | 0.00 | 0.00 | 0.00 | 66 | 1011.5 |
| 20260905202554 | 93 | 7 | 5.0 | 9.0 | 0.00 | 0.00 | 0.00 | 66 | 1011.5 |
| 20260905202052 | 93 | 12 | 4.0 | 9.0 | 0.00 | 0.00 | 0.00 | 66 | 1011.4 |
| 20260905201053 | 94 | 12 | 4.0 | 10.0 | 0.00 | 0.00 | 0.00 | 65 | 1011.4 |
| 20260905200553 | 94 | 44 | 5.0 | 10.0 | 0.00 | 0.00 | 0.00 | 64 | 1011.5 |
| 20260905200044 | 94 | 34 | 5.0 | 11.0 | 0.00 | 0.00 | 0.00 | 62 | 1011.5 |
| 20260905195546 | 95 | 25 | 5.0 | 12.0 | 0.00 | 0.00 | 0.00 | 64 | 1011.5 |
| 20260905195043 | 95 | 21 | 3.0 | 12.0 | 0.00 | 0.00 | 0.00 | 61 | 1011.5 |
| 20260905194544 | 96 | 7 | 2.0 | 5.0 | 0.00 | 0.00 | 0.00 | 63 | 1011.5 |
| 20260905194034 | 95 | 21 | 2.0 | 9.0 | 0.00 | 0.00 | 0.00 | 63 | 1011.5 |
| 20260905193529 | 95 | 321 | 4.0 | 10.0 | 0.00 | 0.00 | 0.00 | 63 | 1011.5 |
| 20260905193029 | 94 | 54 | 4.0 | 10.0 | 0.00 | 0.00 | 0.00 | 62 | 1011.5 |
| 20260905192509 | 94 | 29 | 3.0 | 9.0 | 0.00 | 0.00 | 0.00 | 65 | 1011.5 |
| 20260905191958 | 94 | 7 | 4.0 | 10.0 | 0.00 | 0.00 | 0.00 | 64 | 1011.6 |
| 20260905191451 | 94 | 306 | 3.0 | 10.0 | 0.00 | 0.00 | 0.00 | 61 | 1011.6 |
| 20260905190947 | 94 | 7 | 3.0 | 7.0 | 0.00 | 0.00 | 0.00 | 67 | 1011.6 |
| 20260905190440 | 94 | 330 | 3.0 | 7.0 | 0.00 | 0.00 | 0.00 | 65 | 1011.7 |
| 20260905185932 | 94 | 7 | 2.0 | 6.0 | 0.00 | 0.00 | 0.00 | 63 | 1011.7 |
| 20260905185425 | 94 | 321 | 1.0 | 4.0 | 0.00 | 0.00 | 0.00 | 64 | 1011.7 |
| 20260905184916 | 94 | 21 | 1.0 | 4.0 | 0.00 | 0.00 | 0.00 | 63 | 1012.0 |
| 20260905184406 | 94 | 310 | 2.0 | 12.0 | 0.00 | 0.00 | 0.00 | 62 | 1012.0 |
| 20260905183855 | 94 | 337 | 2.0 | 12.0 | 0.00 | 0.00 | 0.00 | 63 | 1012.0 |
| 20260905183345 | 94 | 334 | 2.0 | 6.0 | 0.00 | 0.00 | 0.00 | 61 | 1012.1 |
| 20260905182331 | 95 | 7 | 2.0 | 6.0 | 0.00 | 0.00 | 0.00 | 61 | 1012.1 |
| 20260905181819 | 95 | 323 | 2.0 | 5.0 | 0.00 | 0.00 | 0.00 | 62 | 1012.1 |
| 20260905181304 | 95 | 7 | 3.0 | 7.0 | 0.00 | 0.00 | 0.00 | 63 | 1012.1 |
| 20260905180807 | 94 | 2 | 2.0 | 7.0 | 0.00 | 0.00 | 0.00 | 61 | 1012.1 |
| 20260905175754 | 94 | 353 | 2.0 | 5.0 | 0.00 | 0.00 | 0.00 | 66 | 1012.1 |
| 20260905175255 | 94 | 322 | 3.0 | 10.0 | 0.00 | 0.00 | 0.00 | 68 | 1012.1 |
| 20260905174748 | 94 | 29 | 4.0 | 10.0 | 0.00 | 0.00 | 0.00 | 63 | 1012.2 |
| 20260905173239 | 94 | 25 | 2.0 | 6.0 | 0.00 | 0.00 | 0.00 | 64 | 1012.2 |
| 20260905172732 | 94 | 7 | 1.0 | 4.0 | 0.00 | 0.00 | 0.00 | 64 | 1012.2 |
| 20260905171719 | 94 | 321 | 1.0 | 4.0 | 0.00 | 0.00 | 0.00 | 63 | 1012.3 |
| 20260905171207 | 94 | 336 | 2.0 | 6.0 | 0.00 | 0.00 | 0.00 | 62 | 1012.3 |
| 20260905170655 | 94 | 40 | 2.0 | 7.0 | 0.00 | 0.00 | 0.00 | 64 | 1012.5 |
| 20260905170140 | 94 | 43 | 2.0 | 7.0 | 0.00 | 0.00 | 0.00 | 64 | 1012.5 |
| 20260905165131 | 94 | 12 | 2.0 | 10.0 | 0.00 | 0.00 | 0.00 | 63 | 1012.6 |
| 20260905164626 | 94 | 327 | 2.0 | 10.0 | 0.00 | 0.00 | 0.00 | 63 | 1012.6 |
| 20260905164127 | 93 | 341 | 2.0 | 7.0 | 0.00 | 0.00 | 0.00 | 63 | 1012.6 |
| 20260905163621 | 93 | 291 | 2.0 | 9.0 | 0.00 | 0.00 | 0.00 | 64 | 1012.6 |
| 20260905162619 | 92 | 277 | 1.0 | 4.0 | 0.00 | 0.00 | 0.00 | 67 | 1012.6 |
| 20260905162111 | 92 | 355 | 1.0 | 4.0 | 0.00 | 0.00 | 0.00 | 65 | 1012.6 |
| 20260905161608 | 92 | 318 | 1.0 | 4.0 | 0.00 | 0.00 | 0.00 | 65 | 1012.6 |
| 20260905161109 | 92 | 56 | 2.0 | 4.0 | 0.00 | 0.00 | 0.00 | 68 | 1012.6 |
| 20260905160601 | 92 | 29 | 2.0 | 5.0 | 0.00 | 0.00 | 0.00 | 68 | 1012.5 |
| 20260905160052 | 92 | 226 | 1.0 | 5.0 | 0.00 | 0.00 | 0.00 | 68 | 1012.5 |
| 20260905155549 | 92 | 327 | 2.0 | 5.0 | 0.00 | 0.00 | 0.00 | 67 | 1012.5 |
| 20260905155038 | 92 | 357 | 2.0 | 6.0 | 0.00 | 0.00 | 0.00 | 67 | 1012.6 |
| 20260905153508 | 91 | 345 | 1.0 | 4.0 | 0.00 | 0.00 | 0.00 | 70 | 1012.6 |
| 20260905153000 | 90 | 349 | 1.0 | 4.0 | 0.00 | 0.00 | 0.00 | 74 | 1012.6 |
| 20260905152457 | 90 | 305 | 1.0 | 5.0 | 0.00 | 0.00 | 0.00 | 69 | 1012.6 |
| 20260905151956 | 89 | 319 | 1.0 | 5.0 | 0.00 | 0.00 | 0.00 | 70 | 1012.6 |
| 20260905151451 | 89 | 21 | 0.0 | 2.0 | 0.00 | 0.00 | 0.00 | 73 | 1012.6 |
| 20260905150951 | 88 | 7 | 1.0 | 3.0 | 0.00 | 0.00 | 0.00 | 75 | 1012.6 |
| 20260905145941 | 88 | 288 | 1.0 | 4.0 | 0.00 | 0.00 | 0.00 | 74 | 1012.3 |
| 20260905145434 | 88 | 293 | 0.0 | 2.0 | 0.00 | 0.00 | 0.00 | 73 | 1012.3 |
| 20260905144935 | 87 | 287 | 0.0 | 2.0 | 0.00 | 0.00 | 0.00 | 75 | 1012.2 |
| 20260905144416 | 87 | 287 | 0.0 | 2.0 | 0.00 | 0.00 | 0.00 | 74 | 1012.2 |
| 20260905143917 | 87 | 287 | 0.0 | 3.0 | 0.00 | 0.00 | 0.00 | 76 | 1012.2 |
| 20260905142834 | 87 | 287 | 0.0 | 2.0 | 0.00 | 0.00 | 0.00 | 74 | 1012.2 |
| 20260905142325 | 86 | 296 | 0.0 | 2.0 | 0.00 | 0.00 | 0.00 | 75 | 1012.2 |
| 20260905141821 | 86 | 296 | 0.0 | 2.0 | 0.00 | 0.00 | 0.00 | 76 | 1012.2 |
| 20260905141310 | 85 | 271 | 0.0 | 2.0 | 0.00 | 0.00 | 0.00 | 76 | 1012.2 |
| 20260905140800 | 85 | 271 | 0.0 | 2.0 | 0.00 | 0.00 | 0.00 | 76 | 1012.2 |
| 20260905140248 | 84 | 271 | 1.0 | 3.0 | 0.00 | 0.00 | 0.00 | 76 | 1012.5 |
| 20260905135740 | 84 | 271 | 1.0 | 3.0 | 0.00 | 0.00 | 0.00 | 77 | 1012.5 |
| 20260905135233 | 83 | 277 | 1.0 | 3.0 | 0.00 | 0.00 | 0.00 | 78 | 1012.5 |
| 20260905134724 | 83 | 244 | 0.0 | 2.0 | 0.00 | 0.00 | 0.00 | 79 | 1012.6 |
| 20260905134210 | 83 | 244 | 0.0 | 1.0 | 0.00 | 0.00 | 0.00 | 81 | 1012.6 |
| 20260905133709 | 83 | 244 | 1.0 | 2.0 | 0.00 | 0.00 | 0.00 | 79 | 1012.6 |
| 20260905133153 | 82 | 244 | 1.0 | 3.0 | 0.00 | 0.00 | 0.00 | 81 | 1012.4 |
| 20260905132654 | 82 | 244 | 1.0 | 3.0 | 0.00 | 0.00 | 0.00 | 83 | 1012.4 |
| 20260905131641 | 81 | 223 | 1.0 | 4.0 | 0.00 | 0.00 | 0.00 | 83 | 1012.3 |
| 20260905131138 | 80 | 287 | 1.0 | 3.0 | 0.00 | 0.00 | 0.00 | 83 | 1012.3 |
| 20260905130639 | 80 | 284 | 0.0 | 3.0 | 0.00 | 0.00 | 0.00 | 84 | 1012.3 |
| 20260905130127 | 80 | 232 | 0.0 | 1.0 | 0.00 | 0.00 | 0.00 | 85 | 1012.3 |
| 20260905125616 | 79 | 232 | 0.0 | 2.0 | 0.00 | 0.00 | 0.00 | 87 | 1012.3 |